CAPE
0 0 0 0 0 0 0 30 101 67 13 67 56 165 295 275 518 538 604 581 457 198 97 124 247 397 984 426 83 64 1 755 774 1084 710 968 1435 1182 950 531 0 233 167 623
0 0 0 0 0 0 0 12 86 95 81 3 16 209 526 586 192 489 305 226 604 284 228 225 333 688 931 1006 586 474 328 1003 1244 877 807 941 1121 1629 1391 34 102 946 851 1330
0 0 0 0 0 0 0 0 0 10 87 89 48 98 708 342 309 249 290 516 654 489 266 333 367 649 900 1001 1451 660 916 1575 1350 1325 1394 1913 2103 2285 1361 812 882 1291 1411 1382
0 0 0 0 0 0 0 0 0 2 43 137 110 60 200 65 2 22 71 162 408 573 512 435 425 637 815 899 1366 880 636 2146 1302 1470 1581 1605 1333 1292 1334 1459 1207 1851 1708 1272
0 0 0 0 0 0 0 0 0 0 0 0 0 1 235 166 176 129 181 240 127 157 623 561 523 648 692 868 1317 1201 1022 2174 1576 1506 2086 1825 1821 1635 1888 1497 1428 1889 1732 1573
0 0 0 0 0 0 0 0 0 0 0 0 0 0 176 152 149 384 78 497 114 395 111 505 647 660 849 1029 1315 1491 1724 2200 2031 1801 2319 2077 1690 1495 1431 1575 1525 1805 1472 249
0 0 0 0 0 0 0 0 0 0 0 0 0 0 348 379 341 197 89 20 4 0 72 306 571 737 587 1457 1628 1926 1659 2503 2648 2230 2391 1986 1836 1313 1209 1093 1233 1502 1420 271
0 0 0 0 0 0 0 0 0 0 0 0 0 77 227 255 278 319 218 56 30 42 19 271 534 693 702 1022 1682 2382 2116 2141 2520 2649 2488 2442 2393 1816 1289 412 65 826 783 359
0 0 0 0 0 0 0 0 0 0 0 0 1 132 142 182 173 162 48 42 9 61 108 343 564 761 806 1122 1516 2578 2715 2713 2384 2812 2790 2687 2824 2051 2018 517 0 82 657 779
0 0 0 0 0 0 0 0 0 0 0 0 0 98 59 168 78 37 21 35 13 267 501 383 727 615 763 1150 1764 2526 2918 3105 2852 2555 2872 2890 2595 2269 1998 450 0 917 757 544
0 0 0 0 0 0 0 0 0 0 0 0 0 72 32 28 92 0 42 29 15 292 253 468 274 871 845 1469 2177 2531 2742 2902 2796 2611 2800 2923 2899 2402 2024 1467 702 1118 726 651
0 0 0 0 0 0 0 0 0 0 0 0 0 122 37 84 37 0 0 36 0 0 0 122 105 1002 1282 1672 2326 2616 2877 2887 2751 2563 2848 2986 2969 2239 2131 1449 1308 1125 1308 1007
0 0 0 0 0 0 0 0 0 0 0 0 0 50 59 18 13 25 0 171 50 18 0 1 184 1552 1629 1640 2053 2575 2824 2818 2531 2825 2814 3026 2918 2291 2007 858 1354 1300 1043 1100
0 0 0 0 0 0 0 0 0 0 0 0 1 3 115 31 47 0 14 4 60 14 69 269 1131 1793 1886 1929 2363 2541 2595 2632 2359 2557 2689 2914 2460 2331 1561 374 1010 864 673 613
0 0 0 0 0 4 0 0 0 0 0 0 0 42 96 24 0 1 0 8 73 955 981 1596 2181 2329 2729 2341 2670 2509 2624 2448 2402 2250 2411 2493 2611 1961 1067 544 312 164 87 201
0 0 0 1 0 0 2 9 11 0 34 459 481 0 103 45 26 48 156 21 716 1631 1817 2696 3010 3245 3049 3224 2894 2945 2734 2628 2482 2449 2748 2858 2079 775 400 174 0 0 170 108
18 6 69 56 125 2 1 25 10 11 644 980 1074 922 165 96 209 113 255 959 1267 1784 2868 2998 3086 3232 3314 3501 3216 3802 3337 3052 2730 2715 2936 2354 748 320 72 0 0 1 30 0
0 7 9 0 2 2 3 6 0 10 677 817 1052 1260 1261 1570 1772 1730 1496 1268 1861 2306 3272 3276 3219 3535 3592 3497 3771 3692 3321 3155 3033 2637 1965 1358 875 413 265 92 36 1 0 0
0 0 0 0 10 8 65 287 76 102 100 216 130 562 1389 1202 2118 2229 2044 1984 2217 2827 3005 2722 3462 3836 3655 3641 3769 3559 3319 3158 2401 2184 1583 1137 738 527 292 114 0 0 0 0
0 0 0 0 134 127 335 524 414 178 689 213 54 2 4 834 1586 2301 2727 2695 2638 2943 2990 3305 3671 3618 3527 3587 3059 2483 2247 2560 2334 1948 1628 1176 735 565 107 0 0 0 0 0
389 420 184 140 215 281 280 197 214 323 586 44 0 0 5 92 1305 2736 2792 2612 2324 2538 3483 3731 3209 3157 3509 2863 2172 1989 1987 2003 1950 1873 1417 1132 634 409 110 54 21 0 0 0
354 408 236 227 340 429 63 109 33 498 2 0 16 155 105 326 734 2720 2761 2533 2326 2484 2956 3115 2932 3197 2818 2212 2026 1831 1817 1774 1564 1650 1120 1026 653 409 230 156 14 0 0 0
411 307 244 238 586 465 12 103 17 0 0 0 4 1 478 728 825 1835 2762 2557 2591 2716 2571 2978 2874 2516 2301 2085 1804 1620 1530 1761 1567 1613 1288 924 528 385 287 66 0 0 0 0
318 324 409 326 195 276 262 19 26 200 471 294 123 273 673 769 1143 1258 2794 2574 2597 2676 3028 3126 2833 2056 1841 2027 2334 1959 1249 1665 1718 1416 1149 772 527 272 133 5 0 0 0 0
0 0 10 108 98 236 199 295 301 166 85 2 0 263 647 570 544 1043 2796 2559 2689 3139 3089 2904 2601 1860 1888 2318 2350 1845 1188 1329 1574 1471 1059 493 173 119 16 0 0 0 0 0
0 1 0 303 820 815 386 260 34 2 0 0 0 0 713 534 803 1597 2925 2796 2956 3190 3172 2951 2624 1531 1991 1826 2225 1504 1193 1373 1412 1057 768 360 207 93 0 0 0 0 0 0
CIN
-0 -0 -0 -0 -0 -0 -0 -161 -119 -163 -108 -37 -125 -158 -257 -219 -195 -153 -115 -120 -156 -197 -272 -206 -129 -112 -83 -137 -194 -184 -54 -128 -128 -103 -94 -63 -39 -53 -180 -282 -0 -318 -282 -177
-0 -0 -0 -0 -0 -0 -0 -28 -63 -54 -139 -18 -52 -108 -123 -122 -362 -249 -315 -380 -140 -193 -260 -238 -141 -105 -81 -106 -168 -147 -159 -121 -114 -124 -108 -75 -73 -60 -154 -468 -384 -175 -155 -58
-0 -0 -0 -0 -0 -0 -0 -0 -13 -73 -24 -56 -75 -110 -58 -263 -367 -340 -398 -348 -201 -152 -259 -245 -189 -164 -126 -113 -127 -138 -122 -94 -99 -101 -85 -58 -71 -69 -122 -185 -168 -94 -39 -51
-0 -0 -0 -0 -0 -0 -0 -0 -0 -3 -67 -37 -70 -36 -334 -519 -60 -425 -372 -420 -455 -155 -197 -229 -183 -204 -177 -166 -140 -185 -195 -93 -103 -82 -49 -33 -35 -43 -62 -57 -83 -52 -40 -41
-0 -0 -0 -0 -0 -0 -0 -0 -0 -0 -0 -0 -2 -3 -393 -369 -335 -371 -427 -543 -589 -432 -214 -203 -205 -167 -234 -209 -191 -201 -207 -123 -104 -106 -53 -45 -35 -46 -68 -93 -72 -45 -34 -28
-0 -0 -0 -0 -0 -0 -0 -0 -0 -0 -0 -0 -0 -0 -391 -313 -361 -372 -524 -545 -334 -464 -513 -169 -141 -151 -192 -208 -199 -220 -198 -145 -140 -109 -52 -38 -41 -73 -55 -45 -63 -50 -40 -157
-0 -0 -0 -0 -0 -0 -0 -0 -0 -0 -0 -0 -0 -37 -215 -222 -275 -397 -429 -578 -153 -0 -430 -275 -97 -147 -179 -196 -213 -224 -225 -150 -114 -103 -64 -52 -51 -90 -102 -113 -68 -63 -55 -147
-0 -0 -0 -0 -0 -0 -0 -0 -0 -0 -0 -0 -0 -64 -138 -217 -194 -272 -344 -532 -456 -317 -437 -314 -118 -124 -166 -203 -212 -201 -223 -170 -128 -99 -73 -56 -53 -57 -123 -268 -25 -167 -152 -191
-0 -0 -0 -0 -0 -0 -0 -0 -0 -0 -0 -0 -37 -194 -300 -264 -264 -275 -228 -323 -404 -452 -102 -188 -143 -152 -183 -222 -243 -212 -213 -173 -169 -98 -73 -65 -47 -50 -53 -214 -0 -360 -186 -118
-0 -0 -0 -0 -0 -0 -0 -0 -0 -0 -0 -0 -0 -104 -120 -221 -304 -183 -178 -242 -207 -312 -379 -537 -191 -192 -238 -245 -252 -223 -212 -181 -160 -112 -74 -56 -64 -74 -72 -311 -0 -161 -153 -113
-0 -0 -0 -0 -0 -0 -0 -0 -0 -0 -0 -0 -0 -87 -174 -247 -328 -0 -251 -243 -205 -465 -532 -367 -359 -138 -215 -260 -269 -252 -224 -177 -146 -119 -75 -46 -37 -47 -59 -130 -199 -92 -113 -101
-0 -0 -0 -0 -0 -0 -0 -0 -0 -0 -0 -0 -0 -55 -70 -187 -221 -46 -1 -274 -20 -0 -31 -411 -506 -135 -212 -280 -280 -255 -211 -177 -140 -108 -67 -41 -29 -39 -35 -60 -81 -66 -62 -80
-0 -0 -0 -0 -0 -0 -0 -0 -0 -0 -0 -0 -0 -72 -162 -127 -135 -158 -0 -240 -337 -401 -0 -197 -348 -161 -220 -274 -303 -290 -232 -174 -150 -93 -54 -37 -37 -56 -40 -122 -44 -59 -63 -48
-0 -0 -0 -0 -0 -4 -0 -0 -0 -0 -0 -0 -20 -72 -64 -87 -89 -20 -149 -42 -96 -224 -519 -362 -217 -188 -227 -289 -333 -304 -258 -200 -185 -117 -56 -58 -58 -73 -106 -146 -35 -52 -66 -45
-0 -0 -0 -0 -0 -14 -0 -0 -0 -0 -0 -0 -0 -59 -102 -94 -0 -65 -0 -126 -111 -29 -68 -148 -226 -316 -295 -297 -282 -269 -248 -233 -198 -138 -91 -84 -59 -58 -129 -163 -166 -134 -47 -16
-0 -0 -0 -1 -1 -0 -13 -23 -35 -0 -88 -129 -70 -1 -130 -179 -265 -132 -124 -261 -35 -43 -71 -208 -257 -277 -261 -227 -238 -196 -223 -195 -201 -136 -80 -52 -85 -243 -277 -300 -0 -0 -68 -64
-89 -21 -68 -63 -50 -19 -8 -30 -26 -31 -121 -86 -90 -94 -131 -156 -176 -128 -96 -39 -43 -56 -102 -190 -218 -226 -214 -206 -202 -131 -174 -170 -158 -106 -55 -67 -228 -350 -355 -0 -0 -13 -84 -0
-0 -48 -100 -0 -43 -49 -17 -60 -0 -50 -154 -174 -89 -109 -45 -37 -52 -106 -91 -72 -55 -39 -117 -165 -184 -193 -170 -167 -149 -139 -143 -125 -96 -84 -142 -168 -225 -300 -291 -332 -323 -113 -0 -0
-0 -0 -0 -4 -33 -64 -33 -51 -54 -53 -132 -341 -331 -269 -52 -69 -64 -91 -117 -127 -82 -91 -167 -177 -169 -183 -184 -159 -125 -120 -101 -80 -155 -122 -169 -194 -263 -251 -254 -294 -4 -0 -0 -0
-0 -0 -0 -0 -27 -16 -170 -109 -123 -71 -112 -509 -745 -262 -64 -195 -54 -81 -88 -119 -139 -79 -99 -128 -149 -191 -178 -151 -220 -263 -242 -140 -146 -172 -170 -216 -267 -253 -330 -0 -0 -0 -0 -0
-27 -72 -39 -39 -36 -69 -172 -209 -140 -33 -113 -456 -0 -0 -855 -718 -41 -39 -88 -118 -168 -181 -64 -112 -240 -202 -175 -244 -343 -324 -267 -216 -192 -156 -199 -211 -290 -314 -375 -321 -266 -0 -0 -0
-27 -26 -30 -34 -27 -28 -267 -130 -74 -244 -223 -0 -195 -595 -368 -356 -113 -31 -63 -124 -154 -150 -59 -140 -168 -195 -239 -293 -294 -316 -269 -201 -218 -176 -230 -201 -238 -256 -272 -248 -288 -0 -0 -0
-23 -19 -34 -33 -26 -174 -332 -237 -341 -0 -0 -0 -262 -370 -193 -96 -47 -34 -52 -99 -133 -128 -109 -95 -158 -239 -238 -239 -259 -281 -225 -179 -183 -141 -168 -207 -265 -247 -223 -259 -20 -0 -0 -0
-21 -45 -44 -41 -181 -196 -198 -402 -51 -305 -215 -262 -246 -179 -41 -43 -30 -22 -60 -80 -114 -115 -70 -82 -107 -205 -183 -117 -83 -141 -269 -150 -139 -165 -148 -177 -200 -214 -216 -268 -0 -0 -0 -0
-0 -0 -54 -74 -187 -254 -314 -292 -216 -233 -238 -93 -0 -49 -28 -53 -107 -67 -50 -70 -65 -41 -74 -100 -111 -144 -106 -58 -133 -183 -200 -178 -105 -125 -150 -215 -277 -201 -211 -0 -0 -0 -0 -0
-0 -11 -0 -65 -83 -81 -167 -284 -353 -256 -0 -0 -0 -0 -11 -38 -43 -54 -56 -70 -80 -57 -67 -79 -87 -156 -65 -17 -46 -149 -133 -194 -151 -162 -151 -199 -191 -164 -0 -0 -0 -0 -0 -0
Wind_Speed
9 4 7 12 13 15 13 12 9 12 21 16 12 9 11 11 7 1 2 9 7 9 9 10 9 13 11 11 8 8 8 10 7 4 4 2 3 2 4 3 5 5 6 9
7 10 11 14 18 16 12 12 17 8 13 6 5 10 15 10 7 10 8 5 8 10 10 12 9 14 14 12 9 8 8 13 8 7 4 4 3 2 4 4 3 6 3 4
9 12 17 17 16 14 12 7 8 21 13 1 3 8 9 2 7 4 15 8 10 15 17 17 13 17 15 14 11 10 8 10 9 9 5 3 3 3 3 2 3 4 5 6
8 16 16 15 14 8 8 13 14 6 5 3 9 5 3 4 4 4 10 9 22 17 15 19 18 18 17 15 14 13 11 8 8 8 5 5 5 4 3 3 3 5 6 4
12 11 8 7 6 5 8 8 7 7 8 5 8 3 2 3 5 7 11 12 15 11 13 20 22 19 22 18 16 14 14 11 8 7 6 5 4 3 2 5 6 4 4 6
8 10 5 7 7 7 5 7 11 7 3 6 8 2 4 7 10 4 8 13 15 12 7 11 22 20 18 19 17 15 14 13 10 9 8 6 7 6 4 2 4 3 3 4
10 12 10 4 4 9 5 2 4 6 4 10 10 4 6 9 9 15 15 15 19 6 8 7 18 19 15 21 20 16 16 12 11 11 8 8 6 9 9 9 4 6 4 2
7 7 11 6 8 7 7 8 7 7 5 8 5 8 8 18 11 15 17 11 11 9 9 11 12 20 16 20 20 19 17 14 12 12 9 8 8 5 9 7 5 4 5 5
5 9 9 10 6 10 7 5 11 3 6 4 2 3 5 7 14 8 10 8 18 4 20 11 11 21 16 17 19 18 17 14 14 9 9 8 7 8 6 8 5 5 5 6
6 4 6 7 4 5 4 6 5 5 2 7 6 2 4 8 9 5 11 17 9 15 21 26 15 23 18 18 16 17 17 16 14 12 8 7 8 7 8 6 7 6 8 7
3 1 10 5 6 10 2 5 3 3 4 2 3 5 7 8 4 7 10 8 12 21 22 18 5 18 21 18 18 16 14 14 12 10 8 7 7 7 6 7 8 9 9 7
4 1 4 11 9 11 8 8 8 7 10 4 4 5 4 5 4 2 11 15 9 12 16 10 9 16 18 17 16 16 14 14 12 10 7 7 5 6 7 7 9 10 8 8
6 4 3 11 9 5 3 6 3 2 2 6 2 5 3 6 2 3 6 15 12 14 7 8 5 19 17 16 15 16 15 13 12 11 9 8 8 10 8 6 8 9 10 9
5 4 3 4 6 4 4 5 4 2 3 5 3 6 5 7 7 4 5 10 18 16 13 11 9 15 15 15 15 16 14 14 12 13 10 11 7 7 7 12 5 6 9 11
2 4 5 8 9 9 4 5 5 4 4 3 10 7 8 8 8 4 5 2 6 6 10 8 9 11 12 13 12 13 11 13 12 13 9 6 7 5 8 10 13 17 15 10
2 6 5 7 9 9 6 11 11 8 14 15 15 3 6 8 5 5 4 8 4 3 6 10 12 14 13 13 11 11 11 11 12 12 8 8 7 9 11 13 15 15 10 10
1 1 3 5 7 9 7 4 2 4 12 6 9 14 1 7 5 5 3 6 7 7 10 13 13 12 11 12 13 10 10 10 11 9 8 8 12 11 10 12 10 11 9 9
3 4 1 4 6 5 8 11 3 7 12 10 5 16 13 8 6 7 7 8 4 9 11 12 12 13 11 11 11 12 11 8 8 10 11 12 14 12 10 10 11 10 8 10
5 2 2 2 3 6 5 7 7 5 8 19 18 23 16 10 7 10 10 8 6 8 9 10 11 14 12 12 11 11 10 9 11 11 11 12 13 13 10 10 10 7 8 6
7 6 5 3 3 4 1 9 12 4 3 12 14 16 15 22 7 3 7 9 9 4 10 11 12 13 13 11 13 13 10 11 11 11 11 11 12 15 11 10 10 7 6 6
3 3 2 3 2 2 1 6 6 4 4 4 13 17 21 12 9 4 5 6 8 5 5 12 15 12 13 14 15 13 12 9 10 10 10 11 11 12 13 10 7 9 7 7
4 2 2 2 2 2 2 1 5 3 4 6 8 11 20 27 21 4 3 2 7 9 2 12 11 13 15 15 14 13 12 9 9 12 11 11 11 9 9 11 9 8 7 8
1 3 3 4 3 1 3 3 6 9 5 5 9 15 22 19 8 7 7 5 5 8 5 9 12 15 15 15 14 14 10 11 10 12 11 11 11 10 10 10 9 7 8 6
3 5 4 5 2 4 3 2 6 8 7 11 14 17 5 8 10 9 7 4 3 7 4 6 13 14 11 7 11 13 11 11 15 13 11 9 10 9 10 7 6 6 5 6
4 4 3 2 9 7 4 5 7 4 6 11 9 11 5 7 11 13 5 3 1 3 5 7 7 13 13 7 13 14 11 12 12 12 12 11 9 9 8 6 3 4 2 7
4 2 1 2 3 3 3 5 6 5 9 10 9 12 4 4 5 9 3 2 5 5 3 4 4 11 15 13 13 14 14 14 14 13 9 8 8 8 7 6 5 10 4 8
Wind_Direction
235 212 233 259 259 259 267 140 173 204 229 249 188 192 218 211 203 157 164 167 176 177 167 160 155 149 133 145 152 159 151 155 149 143 147 153 210 145 99 128 149 151 212 258
246 222 233 245 260 266 273 174 205 109 242 201 275 206 208 187 156 170 145 32 214 181 164 167 160 156 155 156 163 168 164 157 162 156 165 170 162 164 148 139 205 211 263 132
204 233 225 235 246 262 271 256 254 179 218 255 109 309 143 99 231 228 95 56 307 211 172 173 174 163 162 165 168 177 175 166 168 164 163 168 94 93 104 131 214 206 138 128
223 236 244 240 241 217 273 280 293 293 144 201 165 239 92 221 194 2 72 173 195 221 180 169 177 165 173 179 176 181 178 172 175 162 164 164 157 161 186 153 148 149 137 144
248 245 261 259 273 298 243 323 320 324 322 346 300 113 268 154 52 252 193 239 200 198 196 176 178 175 179 179 180 182 183 170 170 171 159 173 161 166 102 133 148 160 152 145
241 277 292 235 258 284 266 330 327 322 335 342 253 165 227 176 202 213 265 272 203 196 178 207 180 183 176 180 179 180 178 178 168 170 166 174 174 120 151 94 155 159 157 135
275 246 261 263 4 330 322 321 318 336 332 242 265 44 225 217 194 198 195 248 263 161 190 232 187 178 180 174 182 177 178 174 171 174 162 180 184 142 156 194 155 164 151 157
212 297 210 206 170 206 247 192 168 234 246 262 349 148 221 202 202 204 197 197 284 289 314 256 184 174 181 173 170 171 175 177 172 170 170 173 180 160 168 152 172 159 153 152
344 303 108 163 159 151 277 295 226 240 291 6 177 106 15 244 254 230 218 290 230 179 174 274 171 166 172 172 167 162 171 172 174 168 164 173 171 168 155 181 145 154 142 147
270 321 190 174 147 189 187 247 8 343 227 273 288 138 215 192 196 154 80 72 308 139 150 194 206 167 171 164 159 162 167 166 168 167 165 174 171 181 160 158 154 149 140 150
346 93 290 101 178 199 269 270 268 164 149 177 297 268 217 218 245 104 121 162 173 157 183 195 94 178 167 157 155 160 161 159 157 164 166 164 174 172 144 153 155 154 149 152
224 228 314 243 237 187 190 211 184 125 289 244 154 293 204 170 168 148 181 181 205 179 200 209 162 189 157 153 151 156 158 159 162 163 156 158 155 146 159 146 146 148 139 118
322 290 319 335 5 64 167 251 256 228 128 254 170 214 204 126 92 355 98 167 203 221 243 217 185 171 156 157 153 158 157 159 162 154 157 163 166 163 184 149 144 135 118 111
105 283 216 209 258 223 190 208 226 270 41 282 307 170 194 170 136 93 22 118 207 221 211 242 158 160 154 153 150 154 155 158 157 157 171 184 163 152 168 132 205 121 121 107
134 271 318 327 330 331 1 344 313 327 302 302 207 191 208 175 134 198 175 162 320 131 169 139 120 125 129 137 136 149 146 156 155 160 166 142 121 152 91 101 85 66 44 65
253 281 317 321 301 313 349 337 56 44 21 5 346 357 188 132 143 65 223 199 216 142 89 99 102 110 120 127 128 137 146 157 148 154 139 123 118 103 110 116 112 124 141 138
269 123 33 300 333 351 1 3 284 140 75 47 14 323 123 134 158 179 285 195 150 120 116 122 120 122 127 126 134 125 125 129 139 133 117 108 111 107 115 121 120 132 137 127
327 352 71 258 336 341 260 341 308 82 63 59 12 6 23 55 67 65 63 53 68 124 126 130 134 131 130 128 120 121 126 122 112 109 106 114 121 122 126 124 126 128 133 129
289 0 331 113 279 279 330 6 36 60 47 12 357 358 4 357 30 11 8 13 11 136 136 141 134 132 133 133 131 123 130 123 124 124 122 127 130 125 124 127 129 128 124 117
254 221 148 280 238 249 309 335 357 30 97 19 8 352 349 334 11 290 10 356 6 41 140 132 133 134 136 136 124 124 125 130 132 131 133 131 138 131 134 137 137 133 118 118
38 5 82 335 273 116 38 330 316 87 240 330 29 358 335 325 280 250 58 354 324 321 170 136 138 141 135 131 129 134 139 136 137 135 133 130 137 134 139 142 137 137 130 123
154 144 237 277 282 330 255 335 84 149 219 180 99 74 295 283 276 221 155 194 284 296 252 149 136 134 142 141 140 146 144 149 137 135 136 133 135 134 138 135 138 129 120 125
354 165 180 112 208 157 353 93 141 175 199 216 185 196 221 252 270 229 199 201 256 273 273 161 146 147 156 151 147 143 146 133 133 134 138 132 129 131 137 136 126 125 127 132
31 27 64 75 143 132 216 146 166 210 212 234 239 235 279 275 266 251 182 183 258 292 92 138 143 150 145 146 143 139 140 128 137 135 129 123 126 131 131 125 121 132 137 148
227 47 309 169 120 126 165 174 207 261 309 302 321 305 261 312 325 317 149 175 333 7 106 125 148 135 160 162 126 131 129 123 128 128 132 133 134 133 127 78 105 162 170 184
322 313 80 194 139 124 209 248 271 283 262 273 287 305 249 299 274 308 90 80 64 80 122 126 134 122 133 135 126 135 143 133 133 132 137 139 137 137 120 114 80 45 60 137